Weather History for Kirksville, MO

Change the Weather History Date:

Sunday, May 19, 2013

  Actual Average Record
Temperature  
Mean Temperature 74 °F 63 °F  
Max Temperature 87 °F 73 °F 90 °F (1944)
Min Temperature 61 °F 53 °F 37 °F (2002)
Degree Days  
Heating Degree Days 0 4  
Month to date heating degree days 158 119  
Since 1 July heating degree days 6004 5809  
Cooling Degree Days 9 2  
Month to date cooling degree days 37 24  
Year to date cooling degree days 47 31  
Growing Degree Days 24 (Base 50)    
Moisture  
Dew Point 66 °F    
Average Humidity 74    
Maximum Humidity 100    
Minimum Humidity 48    
Precipitation  
Precipitation 0.53 in 0.15 in 2.86 in (1974)
Month to date precipitation 1.97 3.03  
Year to date precipitation 17.94 12.22  
Sea Level Pressure  
Sea Level Pressure 29.78 in    
Wind  
Wind Speed 11 mph (South)    
Max Wind Speed 29 mph    
Max Gust Speed 41 mph    
Visibility 7 miles    
Events Rain , Thunderstorm    
T = Trace of Precipitation, MM = Missing Value Source: NWS Daily Summary

Daily Weather History Graph

Daily Weather History Graph

Search for Another Location

Airport:

Trip Planner

Search our weather history database for the weather conditions in past years. The results will help you decide how hot, cold, wet, or windy it might be!

Date:

Astronomy

May. 19, 2013 Rise Set
Actual Time 5:51 AM CDT 8:22 PM CDT
Civil Twilight 5:19 AM CDT 8:54 PM CDT
Nautical Twilight 4:41 AM CDT 9:32 PM CDT
Astronomical Twilight 3:58 AM CDT 10:16 PM CDT
Moon 2:27 PM CDT (5/19) 2:14 AM CDT (5/19)
Length of Visible Light 15h 34m
Length of Day
14h 31m
Waxing Gibbous, 65% of the Moon is Illuminated
May 19
Waxing Gibbous
May 24
Full
May 31
Last Quarter
Jun 8
New
Jun 16
First Quarter

Hourly Weather History & Observations

Time (CDT) Temp. Heat Index Dew Point Humidity Pressure Visibility Wind Dir Wind Speed Gust Speed Precip Events Conditions
12:55 AM 71.1 °F - 64.0 °F 78% 29.85 in 8.0 mi SSE 12.7 mph - N/A   Overcast
1:21 AM 69.8 °F - 64.4 °F 83% 29.85 in 8.0 mi SSE 10.4 mph - N/A   Overcast
1:29 AM 69.8 °F - 64.4 °F 83% 29.85 in 8.0 mi SE 9.2 mph - N/A   Overcast
1:55 AM 69.1 °F - 64.0 °F 84% 29.84 in 8.0 mi SSE 6.9 mph - N/A   Scattered Clouds
2:55 AM 69.1 °F - 64.9 °F 87% 29.84 in 8.0 mi SSE 9.2 mph - N/A   Mostly Cloudy
3:55 AM 69.1 °F - 64.9 °F 87% 29.82 in 8.0 mi SSE 9.2 mph - N/A   Mostly Cloudy
4:09 AM 69.8 °F - 66.2 °F 88% 29.84 in 8.0 mi South 8.1 mph - N/A Thunderstorm Overcast
4:31 AM 69.8 °F - 66.2 °F 88% 29.84 in 7.0 mi South 6.9 mph - 0.00 in Thunderstorm Thunderstorm
4:45 AM 68.0 °F - 66.2 °F 94% 29.83 in - East 5.8 mph - 0.00 in Thunderstorm Thunderstorm
4:55 AM 69.1 °F - 66.0 °F 90% 29.81 in 7.0 mi East 8.1 mph - 0.00 in   Unknown
5:55 AM 66.9 °F - 64.9 °F 93% 29.81 in 6.0 mi ESE 5.8 mph - N/A   Clear
6:55 AM 66.2 °F - 66.2 °F 100% 29.80 in 3.0 mi ESE 6.9 mph - N/A   Clear
7:55 AM 70.0 °F - 68.0 °F 93% 29.79 in 4.0 mi SE 12.7 mph - N/A   Clear
8:38 AM 73.4 °F - 69.8 °F 88% 29.85 in 5.0 mi South 12.7 mph - N/A   Partly Cloudy
8:55 AM 73.0 °F - 69.1 °F 87% 29.86 in 4.0 mi South 16.1 mph 24.2 mph N/A   Scattered Clouds
9:06 AM 73.4 °F - 69.8 °F 88% 29.87 in 4.0 mi South 15.0 mph - N/A   Mostly Cloudy
9:14 AM 73.4 °F - 69.8 °F 88% 29.87 in 4.0 mi South 11.5 mph - N/A   Mostly Cloudy
9:48 AM 73.4 °F - 69.8 °F 88% 29.88 in 4.0 mi South 15.0 mph 20.7 mph N/A Thunderstorm Mostly Cloudy
9:55 AM 73.9 °F - 70.0 °F 87% 29.86 in 4.0 mi South 10.4 mph 20.7 mph N/A Thunderstorm Mostly Cloudy
10:09 AM 75.2 °F - 71.6 °F 89% 29.84 in 5.0 mi South 8.1 mph - 0.00 in Rain Light Rain
10:18 AM 75.2 °F - 69.8 °F 83% 29.82 in 5.0 mi South 8.1 mph - 0.00 in   Haze
10:55 AM 75.9 °F - 70.0 °F 82% 29.74 in 5.0 mi ESE 15.0 mph - 0.00 in   Haze
11:55 AM 79.0 °F - 69.1 °F 72% 29.74 in 6.0 mi SE 11.5 mph 20.7 mph N/A   Haze
12:55 PM 82.9 °F 85.4 °F 66.9 °F 58% 29.75 in 10.0 mi South 15.0 mph 23.0 mph N/A   Clear
1:55 PM 84.2 °F 85.6 °F 64.4 °F 51% 29.73 in 10.0 mi South 16.1 mph 27.6 mph N/A   Clear
2:55 PM 86.0 °F 87.6 °F 64.9 °F 49% 29.70 in 10.0 mi South 18.4 mph 27.6 mph N/A   Partly Cloudy
3:25 PM 82.4 °F 84.6 °F 66.2 °F 58% 29.71 in 10.0 mi South 16.1 mph - N/A Thunderstorm Clear
3:55 PM 82.0 °F 84.9 °F 68.0 °F 62% 29.69 in 8.0 mi SSW 8.1 mph - 0.00 in   Mostly Cloudy
4:55 PM 82.9 °F 87.0 °F 70.0 °F 65% 29.65 in 8.0 mi South 5.8 mph - N/A   Clear
5:55 PM 84.0 °F 87.0 °F 68.0 °F 58% 29.61 in 8.0 mi South 17.3 mph 24.2 mph N/A   Clear
6:55 PM 82.0 °F 84.9 °F 68.0 °F 62% 29.61 in 8.0 mi SSE 15.0 mph - N/A   Scattered Clouds
7:55 PM 79.0 °F - 68.0 °F 69% 29.61 in 8.0 mi SSE 9.2 mph - N/A   Clear
8:55 PM 80.1 °F 81.9 °F 64.9 °F 60% 29.62 in 10.0 mi SSE 16.1 mph - N/A Thunderstorm Overcast
9:18 PM 66.2 °F - 62.6 °F 88% 29.70 in 3.0 mi SW 10.4 mph 34.5 mph 0.03 in Rain , Thunderstorm Thunderstorms and Rain
9:28 PM 66.2 °F - 62.6 °F 88% 29.71 in - SSW 16.1 mph 26.5 mph 0.03 in Thunderstorm Thunderstorm
9:57 PM 62.6 °F - 60.8 °F 94% 29.83 in - WSW 17.3 mph 28.8 mph 0.10 in Thunderstorm Thunderstorm
10:05 PM 62.6 °F - 59.0 °F 88% 29.82 in 2.5 mi WSW 10.4 mph 28.8 mph 0.17 in Rain , Thunderstorm Rain
10:08 PM 62.6 °F - 59.0 °F 88% 29.82 in 4.0 mi WSW 10.4 mph 26.5 mph 0.17 in Rain Light Rain
10:55 PM 62.1 °F - 61.0 °F 96% 29.69 in 10.0 mi SE 6.9 mph - 0.18 in   Overcast
11:55 PM 63.0 °F - 60.1 °F 90% 29.75 in 10.0 mi SSW 12.7 mph - N/A   Mostly Cloudy